This demonstration page uses our WeatherBlox Daily Observations layout. Learn more.

Left ArrowRight Arrow

Hourly Observations for May 25, 2020

Temp ( °F °C ) Dew Point ( °F °C ) Humidity (%) Winds ( mph kmh ) Pressure ( in mb ) Visibility ( mi km ) Precip ( " mm )
12:42 am 00:42 Cloudy 64 17.8 63 17.2 96 96 NNW 5 7 29.81 1010 10 16 0.00 0.00
12:52 am 00:52 Cloudy 64 17.8 63 17.2 96 96 WNW 7 11 29.80 1009 10 16 0.00 0.00
1:05 am 01:05 Cloudy 64 17.8 63 17.2 96 96 WNW 6 9 29.80 1009 10 16 0.00 0.00
1:52 am 01:52 Cloudy 65 18.3 63 17.2 93 93 W 3 6 29.79 1009 10 16 0.00 0.00
2:52 am 02:52 Cloudy 63 17.2 63 17.2 100 100 NW 3 6 29.80 1009 7 11 0.00 0.00
3:52 am 03:52 Cloudy with Light Rain 65 18.3 63 17.2 93 93 SW 3 6 29.83 1010 10 16 0.00 0.00
4:09 am 04:09 Cloudy with Thunderstorms 65 18.3 63 17.2 93 93 SSW 3 6 29.84 1010 9 14 0.00 0.00
4:41 am 04:41 Cloudy with Light Rain 64 17.8 63 17.2 96 96 W 3 6 29.85 1011 7 11 0.01 0.25
4:52 am 04:52 Cloudy with Light Rain 64 17.8 63 17.2 96 96 W 3 6 29.85 1011 5 8 0.01 0.25
5:07 am 05:07 Cloudy with Light Rain 64 17.8 63 17.2 96 96 W 3 6 29.85 1011 5 8 0.03 0.76
5:36 am 05:36 Cloudy with Light Rain 64 17.8 63 17.2 96 96 SW 3 6 29.85 1011 7 11 0.04 1.02
5:52 am 05:52 Mostly Cloudy with Light Rain 64 17.8 62 16.7 93 93 WNW 3 6 29.84 1011 6 10 0.04 1.02
6:52 am 06:52 Cloudy with Mist and Fog 63 17.2 62 16.7 97 97 NNW 7 11 29.82 1010 6 10 0.00 0.00
7:43 am 07:43 Cloudy with Mist and Fog 64 17.8 62 16.7 93 93 NW 12 19 29.85 1011 5 8 0.00 0.00
7:52 am 07:52 Cloudy with Mist and Fog 64 17.8 61 16.1 90 90 NW 9 15 29.85 1011 6 10 0.00 0.00
8:52 am 08:52 Cloudy 64 17.8 61 16.1 90 90 NNW 10 17 29.83 1010 7 11 0.00 0.00
9:52 am 09:52 Cloudy 66 18.9 62 16.7 87 87 N 12 19 29.84 1011 7 11 0.00 0.00
10:52 am 10:52 Cloudy 66 18.9 62 16.7 87 87 NNW 7 11 29.87 1011 7 11 0.00 0.00
11:52 am 11:52 Cloudy with Light Rain 67 19.4 63 17.2 87 87 NW 9 15 29.86 1011 8 13 0.00 0.00
12:52 pm 12:52 Cloudy 68 20 64 17.8 87 87 NNW 6 9 29.87 1011 8 13 0.00 0.00
1:35 pm 13:35 Cloudy 70 21.1 64 17.8 82 82 NNW 5 7 29.85 1011 7 11 0.00 0.00
1:52 pm 13:52 Cloudy 69 20.6 63 17.2 81 81 NNW 3 6 29.86 1011 7 11 0.00 0.00
2:21 pm 14:21 Cloudy with Light Rain 69 20.6 65 18.3 87 87 N 7 11 29.83 1010 4 6 0.01 0.25
2:40 pm 14:40 Cloudy with Light Rain 69 20.6 65 18.3 87 87 N 8 13 29.83 1010 4 6 0.02 0.51
2:52 pm 14:52 Cloudy with Light Rain 69 20.6 65 18.3 87 87 N 7 11 29.84 1010 5 8 0.02 0.51
3:30 pm 15:30 Cloudy with Light Rain 68 20 65 18.3 90 90 NW 7 11 29.82 1010 4 6 0.01 0.25
3:52 pm 15:52 Cloudy with Light Rain 68 20 65 18.3 90 90 NW 6 9 29.83 1010 3 5 0.02 0.51
4:52 pm 16:52 Cloudy with Light Rain 68 20 65 18.3 90 90 NNW 6 9 29.83 1010 4 6 0.01 0.25
5:52 pm 17:52 Cloudy with Mist and Fog 68 20 65 18.3 90 90 NW 7 11 29.83 1010 5 8 0.00 0.00
6:48 pm 18:48 Cloudy with Mist and Fog 66 19 64 18 94 94 NNW 9 15 29.82 1010 6 10 0.00 0.00
6:52 pm 18:52 Cloudy with Mist and Fog 67 19.4 64 17.8 91 91 NNW 7 11 29.82 1010 6 10 0.00 0.00
7:52 pm 19:52 Cloudy with Mist and Fog 65 18.3 63 17.2 93 93 NW 7 11 29.83 1010 6 10 0.00 0.00
8:52 pm 20:52 Cloudy with Mist and Fog 64 17.8 62 16.7 93 93 NW 10 17 29.85 1011 5 8 0.00 0.00
9:52 pm 21:52 Cloudy 64 17.8 62 16.7 93 93 NNW 8 13 29.86 1011 7 11 0.00 0.00
10:52 pm 22:52 Cloudy 64 17.8 61 16.1 90 90 NNW 7 11 29.86 1011 7 11 0.00 0.00
11:52 pm 23:52 Cloudy with Light Rain 63 17.2 61 16.1 93 93 NNW 9 15 29.86 1011 7 11 0.00 0.00

Powered by AerisWeather